Danville, VA

2:29 AM EDT on April 28, 2017 (GMT -0400)
Danville Regional

Weather History for KDAN - April, 2013

Change the Weather History Date:

Thursday, April 4, 2013

  Actual Average Record
Temperature  
Mean Temperature 43 °F 55 °F  
Max Temperature 49 °F 66 °F 90 °F (1967)
Min Temperature 36 °F 44 °F 29 °F (1992)
Degree Days  
Heating Degree Days 22 11  
Month to date heating degree days 67 45  
Since 1 July heating degree days 3522 3556  
Cooling Degree Days 0 1  
Month to date cooling degree days 0 3  
Year to date cooling degree days 2 6  
Moisture  
Dew Point 25 °F    
Average Humidity 59    
Maximum Humidity 92    
Minimum Humidity 26    
Precipitation  
Precipitation 0.58 in 0.12 in 1.45 in (2000)
Month to date precipitation 0.59 0.52  
Year to date precipitation 12.95 11.06  
Snow  
Snow 0.00 in - - ()
Month to date snowfall 0.0  
Since 1 July snowfall 1.7  
Snow Depth 0.00 in    
Sea Level Pressure  
Sea Level Pressure 30.23 in    
Wind  
Wind Speed 9 mph (NE)    
Max Wind Speed 16 mph    
Max Gust Speed 22 mph    
Visibility 8 miles    
Events Rain    
T = Trace of Precipitation, MM = Missing Value Source: NWS Daily Summary

Daily Weather History Graph

Daily Weather History Graph

Search for Another Location

Airport or City:

Trip Planner

Search our weather history database for the weather conditions in past years. The results will help you decide how hot, cold, wet, or windy it might be!

Date:

Astronomy

Apr. 04, 2013 Rise Set
Actual Time 6:58 AM EDT 7:42 PM EDT
Civil Twilight 6:32 AM EDT 8:08 PM EDT
Nautical Twilight 6:01 AM EDT 8:39 PM EDT
Astronomical Twilight 5:30 AM EDT 9:11 PM EDT
Moon 3:15 AM EDT (4/4) 2:07 PM EDT (4/4)
Length of Visible Light 13h 35m
Length of Day
12h 43m
Waning Crescent, 34% of the Moon is Illuminated
Apr 4
Waning Crescent
Apr 10
New
Apr 18
First Quarter
Apr 25
Full
May 2
Last Quarter

Hourly Weather History & Observations

Time (EDT) Temp. Windchill Dew Point Humidity Pressure Visibility Wind Dir Wind Speed Gust Speed Precip Events Conditions
12:53 AM 46.0 °F 40.6 °F 14.0 °F 28% 30.31 in 10.0 mi NE 11.5 mph - N/A   Clear
1:53 AM 44.1 °F 39.0 °F 14.0 °F 30% 30.32 in 10.0 mi ENE 9.2 mph - N/A   Clear
2:53 AM 42.1 °F 36.6 °F 15.1 °F 34% 30.32 in 10.0 mi ENE 9.2 mph - N/A   Clear
3:53 AM 41.0 °F 36.4 °F 15.1 °F 35% 30.32 in 10.0 mi ENE 6.9 mph - N/A   Clear
4:53 AM 39.0 °F 34.8 °F 15.1 °F 38% 30.34 in 10.0 mi ENE 5.8 mph - N/A   Clear
5:53 AM 37.9 °F 32.7 °F 15.1 °F 39% 30.33 in 10.0 mi ENE 6.9 mph - N/A   Clear
6:53 AM 37.0 °F 31.6 °F 15.1 °F 41% 30.35 in 10.0 mi NE 6.9 mph - N/A   Clear
7:53 AM 37.0 °F 31.0 °F 16.0 °F 42% 30.37 in 10.0 mi ENE 8.1 mph - N/A   Clear
8:53 AM 39.0 °F 33.4 °F 16.0 °F 39% 30.39 in 10.0 mi ENE 8.1 mph - N/A   Clear
9:53 AM 39.9 °F 32.9 °F 17.1 °F 40% 30.35 in 10.0 mi ENE 11.5 mph - N/A   Clear
10:53 AM 43.0 °F 38.2 °F 19.9 °F 40% 30.34 in 10.0 mi ENE 8.1 mph - N/A   Clear
11:53 AM 46.0 °F 43.1 °F 19.9 °F 35% 30.31 in 10.0 mi East 5.8 mph - N/A   Scattered Clouds
12:53 PM 46.9 °F - 21.0 °F 36% 30.27 in 10.0 mi ENE 10.4 mph - N/A   Partly Cloudy
1:53 PM 48.0 °F - 21.9 °F 36% 30.24 in 10.0 mi ENE 6.9 mph - N/A   Overcast
2:53 PM 46.0 °F - 27.0 °F 47% 30.25 in 10.0 mi Calm Calm - 0.00 in Rain Light Rain
3:53 PM 39.9 °F 35.8 °F 33.1 °F 77% 30.22 in 10.0 mi ENE 5.8 mph - 0.00 in Rain Light Rain
4:53 PM 37.0 °F 30.4 °F 32.0 °F 82% 30.20 in 9.0 mi NNE 9.2 mph - N/A Rain Light Rain
5:53 PM 37.0 °F 31.0 °F 34.0 °F 89% 30.16 in 9.0 mi NE 8.1 mph - 0.05 in Rain Light Rain
6:03 PM 37.4 °F 31.4 °F 33.8 °F 87% 30.18 in 6.0 mi NNE 8.1 mph - 0.01 in Rain Light Rain
6:41 PM 37.4 °F 29.8 °F 33.8 °F 87% 30.13 in 5.0 mi NE 11.5 mph - 0.03 in Rain Light Rain
6:49 PM 37.4 °F 29.3 °F 33.8 °F 87% 30.13 in 6.0 mi NE 12.7 mph - 0.04 in Rain Light Rain
6:53 PM 37.0 °F 29.3 °F 33.1 °F 86% 30.12 in 6.0 mi NE 11.5 mph - 0.04 in Rain Light Rain
7:53 PM 36.0 °F 27.1 °F 33.1 °F 89% 30.09 in 4.0 mi NE 13.8 mph - 0.05 in Rain Rain
8:53 PM 36.0 °F 27.1 °F 33.1 °F 89% 30.06 in 6.0 mi NE 13.8 mph - 0.07 in Rain Light Rain
9:53 PM 37.0 °F 28.1 °F 33.1 °F 86% 30.05 in 6.0 mi NE 15.0 mph - 0.09 in Rain Light Rain
10:53 PM 37.0 °F 29.3 °F 34.0 °F 89% 30.01 in 5.0 mi NNE 11.5 mph - 0.09 in Rain Light Rain
11:53 PM 37.0 °F 31.0 °F 34.0 °F 89% 29.97 in 6.0 mi NNE 8.1 mph - 0.08 in Rain Light Rain